OBJECT XL, 65732

Orbit data source: Space-Track

You're viewing an Uncataloged Satellite

Recently launched and/or uncataloged satellites may have evolving metadata. Metadata may include but not limited to: Owner, Maufacturer, Bus, Motor, and Mission.

OBJECT XL, 65732 is a satellite owned by Ryman Sat (JP) in LEO that was delivered to and deployed from the ISS. Unknown objects in Earth's orbit typically refer to objects detected orbiting the Earth but have not yet been identified or cataloged. These objects could be anything from previously untracked satellites, spent rocket stages, debris from satellite collisions, or even natural meteoroids temporarily captured by Earth's gravity.

Not visible in the next 10 days
Identifier
65732, 1998-067XL
Orbit
LEO
Country
Flag of JPJP / JPN
Related business
Flag of JPRymanSat Project (JP)
Manufacturer
Ryman Sat
Mission
Operational Amateur Technology
Bus & Motor
CUBESAT 1U, Unknown motor
Mass
1 kg wet, 1 kg dry
Launch date (UTC)
1998-11-20 (27 years ago)
Launch vehicle
FALCON 9
Launch site
Tyuratam Missile And Space Complex (TTMTR)
Object type
Unknown
Shape & HBR
Box, 0.1 m
Radar Cross Section
0.015 m²

Expand to show TLE details & history
Last TLE update: 15 hours ago

TLE from 15 hours ago
0 OBJECT XL
1 65732U 98067XL  26036.85230192  .00764317  27253-3  16154-2 0  9999
2 65732  51.6174 211.1920 0006209 275.2495  84.7805 15.98194787 21875
Epoch: 2026-02-05T20:27Z
TLE epoch observation values (Epoch: 2026-02-05T20:27:18.885Z)
Latitude
-0.00008°
Longitude
128.36467°
Altitude
279.808 km
Speed
7.741 km/s
True Right ascension
14h 04m 46s
True Declination
0° 00' 00"
Sunlit
Object was in full shadow at epoch
Visualization orbit readout
Latitude
Unknown
Longitude
Unknown
Altitude
Unknown
Speed
Unknown
Apparent Right ascension
Unknown
Apparent Declination
Unknown
Sunlit
N/A
Visualization observer readout
Local Sidereal Time
13:37:05
Azimuth
Unknown
Elevation
Unknown
Doppler factor
Unknown
Orbital elements
Apogee altitude
284.083 km
Perigee altitude
275.815 km
Semi-major axis
6,658.086 km
Eccentricity
0.00062
Inclination
51.6174°
RAAN
211.192°
Arg. of periapsis
275.2495°
True anomaly
84.85136°
Mean anomaly
84.7805°
Eccentric anomaly
84.81593°
Mean motion
3.99502 °/min
Orbital period
90.11 mins
BSTAR
0.0016154
Loading maneuver chart data...
Computing Atmospheric mass density...

Documentation

Showing up to 5 results
|